Orbital Elements at Epoch 2459000.5 (2020-May-31.0) TDB
Reference: JPL 11 (heliocentric ecliptic J2000)
Element | Value | Uncertainty (1-sigma) | Units |
e | .3517993130430682 | 5.0024e-05 | |
a | .7453514098383309 | 2.4161e-05 | au |
q | .4831372958815238 | 5.2947e-05 | au |
i | .3215098988663705 | 5.8887e-05 | deg |
node | 182.18097630943 | 0.0080215 | deg |
peri | 98.89828370969147 | 0.0074654 | deg |
M | 254.4773257390802 | 0.039212 | deg |
tp | 2459069.394306212880 (2020-Aug-07.89430621) | 0.028951 | TDB |
period | 235.0390606601809 0.64 | 0.011428 3.129e-05 | d yr |
n | 1.531660307817889 | 7.4475e-05 | deg/d |
Q | 1.007565523795138 | 3.2661e-05 | au |
|
| | Orbit Determination Parameters
Additional Information
|